Regional Weather Roundup
Issued by NWS

Home | Current Version | Previous Version | Text Only | Print | Product List | Glossary Off
Versions: 1 2 3 4 5 6 7 8 9 10 11 12 13 14 15 16 17 18 19 20 21 22 23 24 25 26 27 28 29 30 31 32 33 34 35 36 37 38 39 40 41 42 43 44 45 46 47 48 49 50

000
ASUS43 KIND 070109
RWRIN

WEATHER ROUNDUP FOR INDIANA
NATIONAL WEATHER SERVICE INDIANAPOLIS IN
900 PM EDT WED MAY 06 2015

NOTE: "FAIR" INDICATES FEW OR NO CLOUDS BELOW 12,000 FEET WITH NO
SIGNIFICANT WEATHER AND/OR OBSTRUCTIONS TO VISIBILITY.

* - STATION DOES NOT REPORT WEATHER SUCH AS PRECIPITATION OR FOG.

+ - STATION NOT QUALITY CONTROLLED BY THE NATIONAL WEATHER SERVICE.
    USE DATA WITH CAUTION...ESPECIALLY DEWPOINT AND RELATIVE
    HUMIDITY OBSERVATIONS.

INZ001>003-010>013-019-020-070200-
NORTHWEST INDIANA

CITY           SKY/WX    TMP DP  RH WIND       PRES   REMARKS
GARY /AIRPORT/ MOCLDY    57 N/A N/A VRB5      30.07F
KNOX *+        PTCLDY    73  36  25 SE3       30.07S
LA PORTE +     PTCLDY    74  62  65 E5        30.08S
MICHIGAN CITY+ PTCLDY    68  55  64 CALM      30.07S
MONTICELLO +   PTCLDY    73  56  54 CALM      30.07R
VALPARAISO     PTCLDY    76  53  44 S3        30.07S

$$

LMZ046-743>745-070200-
SOUTHERN LAKE MICHIGAN

STATION/POSITION TIME  TEMP    WIND        PRES    WAVE
                       AIR SEA DIR/SP/G            HT
                 (UTC) (F)     (DEG/KT/KT) (MB)    (FT)
BURNS HARBOR     0100   58      80/ 11/ 12 1018.3S
MICHIGAN CITY    0100   61      30/ 13/ 13   N/A
5NW MICH CITY    0100   56 54   80/  6/  8   N/A     1

$$

INZ004-005-014>016-021>024-070200-
NORTH CENTRAL INDIANA

CITY           SKY/WX    TMP DP  RH WIND       PRES   REMARKS
ELKHART        PTCLDY    73  57  56 E6        30.10S
GOSHEN         CLEAR     69  61  75 E7        30.09S
LOGANSPORT +   PTCLDY    73  52  46 S5        30.09S
PERU/GRISSOM   CLEAR     75  58  55 CALM      30.08S
ROCHESTER +    CLEAR     75  59  57 CALM      30.09S
SOUTH BEND     PTCLDY    77  57  50 E5        30.09S
WARSAW +       CLEAR     72  59  64 SE7       30.10S

$$

INZ006>009-017-018-025>027-070200-
NORTHEAST INDIANA

CITY           SKY/WX    TMP DP  RH WIND       PRES   REMARKS
ANGOLA *+      CLEAR     66  63  88 E7        30.13S
AUBURN +       CLEAR     66  59  77 E6        30.13S HAZE
FORT WAYNE     PTCLDY    71  60  68 E9        30.12R
HUNTINGTON +   CLEAR     73  60  63 E7        30.11R

$$

INZ028-029-035-036-043>045-051>053-070200-
WEST CENTRAL INDIANA

CITY           SKY/WX    TMP DP  RH WIND       PRES   REMARKS
CRAWFORDSVL +  PTCLDY    73  44  36 CALM      30.08S
GREENCASTLE +  PTCLDY    73  46  38 CALM      30.09S
LAFAYETTE      PTCLDY    71  57  61 CALM      30.07R
TERRE HAUTE    CLOUDY    77  56  48 SE6       30.07R

$$

INZ030>032-037>040-046>048-054>057-064-065-070200-
CENTRAL INDIANA

CITY           SKY/WX    TMP DP  RH WIND       PRES   REMARKS
CP ATTERBURY + CLEAR     72  57  60 CALM      30.10R
COLUMBUS       CLEAR     81  45  28 CALM      30.08
FRANKFORT +    PTCLDY    76  53  46 CALM      30.11R
GREENWOOD *+   CLEAR     77  52  41 CALM      30.10R
INDIANAPOLIS   PTCLDY    77  50  38 SE6       30.08R
-EAGLE CREEK   CLEAR     75  52  44 CALM      30.08S
KOKOMO *+      CLEAR     73  57  56 SE3       30.09R
MARION +       CLEAR     73  54  51 E6        30.11S
MT COMFORT *+  CLEAR     73  37  27 CALM      30.10S
SHELBYVILLE    CLEAR     76  52  43 E3        30.09R
ZIONSVILLE +   CLEAR     75  53  45 CALM      30.10S

$$

INZ033-034-041-042-049-050-058-059-070200-
EAST CENTRAL INDIANA

CITY           SKY/WX    TMP DP  RH WIND       PRES   REMARKS
MUNCIE         CLEAR     73  58  59 NE7       30.10S

$$

INZ060-061-067>069-081>083-085>088-070200-
SOUTHWEST INDIANA

CITY           SKY/WX    TMP DP  RH WIND       PRES   REMARKS
EVANSVILLE     CLEAR     78  56  46 CALM      30.06S
HUNTINGBURG *+ CLEAR     75  55  50 CALM      30.08S
WASHINGTON +   CLEAR     73  50  44 S3        30.06S

$$

INZ062-063-066-070>080-084-089>092-070200-
SOUTH CENTRAL AND SOUTHEAST INDIANA

CITY           SKY/WX    TMP DP  RH WIND       PRES   REMARKS
BLOOMINGTON    CLOUDY    74  55  51 CALM      30.09R
MADISON *+     CLEAR     70  57  64 CALM      30.12R
NORTH VERNON + CLEAR     72  55  56 CALM      30.10R

$$



USA.gov is the U.S. government's official web portal to all federal, state and local government web resources and services.